Mid Ohio Valley Regional Airport Parkersburg US
ICAO: KPKB
IATA: PKB
Category: Medium
Scheduled Services: Yes

Elevation: 858 ft
TransAlt. 18000 ft.

Airport Communications:
ATIS:124.35
INDIANAPOLIS CNTR:125.55
CTAF:123.7
GND:121.7
PARKERSBURG TWR:123.7
UNICOM:122.95

KPKB Zoom In..

If you have problems with the map follow the link
https://www.worldairports.se/pages/airport.php?
ICAO=KPKB

Runways:

(A) RW 03 length 7240 ft width 150 ft
ILS 110.70 / hdg 29

(B) RW 10 length 4002 ft width 150 ft
---- / hdg 102

(C) RW 21 length 7240 ft width 150 ft
---- / hdg 209

(D) RW 28 length 4002 ft width 150 ft
---- / hdg 282

Location; KPKB
Day. 17 / Time. 01.53 Zulu
* Altimeter: 30.15
* Temperature: 04° c. 39.2°f.
* Wind from: 270° Speed 07 kn.
Dewpoint: -01° c.
Visibility: 10 Statute Miles.
Clouds: Overcast 1900 ft.

KPKB 170153Z 27007KT 10SM OVC019 04/M01 A3015 RMK AO2 SLP216 T00391006


Wind From 270°
Speed 07 kn.

 
 
jpsmedia.com for Web Design worldairports.se 2018   terms of use